Location: Ciserano
(45.5833°N, 9.6000°E)
Time: 01:54:05
(UTC+00:00)

SJ 16-02 - Pass Details

Date: 20 April 2021
Orbit: 605 x 617 km, 75.0° (Epoch: 10 May)

Event Time Altitude Azimuth Distance (km) Brightness Sun altitude
Exits shadow 01:47:38 37° 308° (NW) 961 2.2 -24.0°
Drops below altitude 10° 01:51:25 10° 5° (N) 1,988 4.7 -23.5°
Sets 01:53:49 0° 14° (NNE) 2,899 5.8 -23.3°
